User: anonymous   Login
Location: Unspecified
(0.0000°N, 0.0000°E)
Time: 12:50:54
(UTC+00:00)
Language:

NANOSAT-1 - Orbit

View from above orbital plane
View from above orbital plane
View from above satellite
View from above satellite

Ground track
Ground track

The orbit data is extracted from the following two-line orbital elements,

1 28493U 04049B   17229.90386881 +.00000076 +00000-0 +19809-4 0  9991
2 28493 098.1985 300.0906 0005102 151.0470 209.1021 14.73333611680003
Epoch (UTC): 17 August 2017 21:41:34
Eccentricity: 0.0005102
inclination: 98.1985°
perigee height: 647 km
apogee height: 654 km
right ascension of ascending node: 300.0906°
argument of perigee: 151.0470°
revolutions per day: 14.73333611
mean anomaly at epoch: 209.1021°
orbit number at epoch: 68000

The dashed part of the orbit path shows where the satellite is in the earth's shadow,  

DLR